Regional Weather Roundup
Issued by NWS Burlington, VT

Home | Current Version | Previous Version | Text Only | Print | Product List | Glossary On
Versions: 1 2 3 4 5 6 7 8 9 10 11 12 13 14 15 16 17 18 19 20 21 22 23 24 25 26 27 28 29 30 31 32 33 34 35 36 37 38 39 40 41 42 43 44 45 46 47 48 49 50
000
ASUS41 KBTV 260130
RWRBTV
VERMONT REGIONAL WEATHER ROUNDUP
NATIONAL WEATHER SERVICE BURLINGTON VT
900 PM EDT SAT APR 25 2015

NOTE: "FAIR" INDICATES FEW OR NO CLOUDS BELOW 12,000 FEET WITH NO
SIGNIFICANT WEATHER AND/OR OBSTRUCTIONS TO VISIBILITY.

* THESE REPORTS ARE NOT UNDER NWS QUALITY CONTROL AND/OR DO NOT
  REPORT WEATHER SUCH AS PRECIPITATION AND FOG.

VTZ001>019-260200-
_____VERMONT_____


CITY           SKY/WX    TMP DP  RH WIND       PRES   REMARKS
BURLINGTON     CLOUDY    45  29  53 W3        29.74S
MONTPELIER     CLOUDY    38  30  73 CALM      29.76F
MORRISVILLE    CLOUDY    39  32  76 S3        29.75S
ST. JOHNSBURY*   N/A     41  32  70 MISG      29.72S
LYNDONVILLE*   CLOUDY    38  30  70 CALM      29.74R
MIDDLEBURY*    CLOUDY    43  32  64 CALM      29.74S
RUTLAND*       CLOUDY    43  27  52 CALM      29.74S
SPRINGFIELD    CLOUDY    45  27  49 CALM      29.74S
HIGHGATE*      CLOUDY    43  32  63 CALM      29.73F
NEWPORT*       CLOUDY    37  32  84 CALM      29.73S
BENNINGTON     CLOUDY    48  28  46 N5        29.72R
SUTTON*          N/A     36 N/A N/A MISG        N/A
MT. MANSFIELD*   N/A     28 N/A N/A CALM        N/A

_____LAKE CHAMPLAIN_____


CITY           SKY/WX    TMP DP  RH WIND       PRES   REMARKS
BURTON ISLAND*   N/A     43  34  70 S8          N/A
COLCHESTER RF*   N/A     43  32  65 SW8         N/A
DIAMOND ISL*     N/A     43  32  65 SW1         N/A

$$

NYZ007-026>031-035-052-083-260200-
_____NORTHERN NEW YORK_____


CITY           SKY/WX    TMP DP  RH WIND       PRES   REMARKS
PLATTSBURGH    CLOUDY    42  33  70 CALM      29.74S
SARANAC LAKE   CLOUDY    40  28  62 CALM      29.72F
MASSENA        CLOUDY    47  32  56 W6        29.77F
OGDENSBURG*    CLOUDY    45  32  61 CALM      29.78S
POTSDAM*       CLOUDY    45  36  70 W7        29.76F
WATERTOWN      CLOUDY    39  27  62 SW5       29.80S
FT DRUM        CLOUDY    41  30  66 W5        29.78S
ALBANY         MOCLDY    50  26  39 CALM      29.74R
GLENS FALLS    CLOUDY    48  29  47 NE8       29.75R

$$
NHZ002-005-011-260200-
_____NEW HAMPSHIRE_____


CITY           SKY/WX    TMP DP  RH WIND       PRES   REMARKS
LEBANON        MOCLDY    38  29  70 CALM      29.74S
KEENE          CLOUDY    46  27  46 N7        29.74R
MT WASHINGTON  FOG       18  18 100 N37G43      N/A  VSB 0   WCI  -4
PLYMOUTH       CLOUDY    41  34  75 W3        29.74S
WHITEFIELD     CLOUDY    38  31  76 CALM      29.72S

$$

_____REGIONAL QUEBEC LOCATIONS_____


CITY           SKY/WX    TMP DP  RH WIND       PRES   REMARKS
MONTREAL       MOCLDY    50  30  46 NW10      29.73R
QUEBEC CITY    MOCLDY    39  36  87 N2        29.72S
SHERBROOKE     CLOUDY    37  36  93 S5        29.71S

_____REGIONAL ONTARIO LOCATIONS_____


CITY           SKY/WX    TMP DP  RH WIND       PRES   REMARKS
OTTAWA         PTCLDY    46  30  53 N10       29.78S

______KEY______
VSB  - VISIBILITY IN MILES
WCI  - WIND CHILL INDEX
HX   - HEAT INDEX
$$
NNNN



USA.gov is the U.S. government's official web portal to all federal, state and local government web resources and services.